カタログに戻る

COSMOS 1829

運用中軍事PO
NORAD 17584·PAYLOAD·🇷🇺 Russia

打ち上げ Mar 13, 1987 から Plesetsk Cosmodrome

Loading…

次のパス (今後24時間)

TLE

最新Source: Space-Track

元期: Sep 14, 2026, 05:11 UTC

1 17584U 87026C   26257.21661388  .00000030  00000-0  10715-3 0  9995
2 17584  82.5755 175.7418 0001962  67.5843 292.5456 12.62722105820644

AllMySatでCOSMOS 1829をリアルタイム追跡

Download on the App Store